Regional Weather Roundup
Issued by NWS

Home | Current Version | Previous Version | Text Only | Print | Product List | Glossary On
Versions: 1 2 3 4 5 6 7 8 9 10 11 12 13 14 15 16 17 18 19 20 21 22 23 24 25 26 27
000
ASUS44 KJAN 161810
RWRMS

MISSISSIPPI HOURLY WEATHER ROUNDUP
NATIONAL WEATHER SERVICE JACKSON MS
100 PM CDT WED AUG 16 2017

NOTE: "FAIR: INDICATES FEW OR NO CLOUDS BELOW 12,000 FEET WITH NO
SIGNIFICANT WEATHER AND/OR OBSTRUCTIONS TO VISIBILITY.

MSZ001>002-007>008-010>013-018>021-025>028-034>036-161900-
NORTHWEST MISSISSIPPI

CITY           SKY/WX    TMP DP  RH WIND       PRES   REMARKS
BATESVILLE     MOCLDY    84  75  73 SW7       30.02F HX  92
CLARKSDALE       N/A     88  79  74 S7        30.01F HX 102
CLEVELAND      MOCLDY    88  79  74 SW9       30.00F HX 102
GREENWOOD      PTSUNNY   89  77  67 VRB5      30.01F HX 101
6HR MIN TEMP:  75; 6HR MAX TEMP:  89;

GREENVILLE     MOSUNNY   90  74  59 SW10      30.00F HX  99
6HR MIN TEMP:  77; 6HR MAX TEMP:  90;

OLIVE BRANCH   CLOUDY   N/A N/A N/A SW3       30.01F
OXFORD           N/A    N/A N/A N/A MISG        N/A
TUNICA           N/A     82  77  83 SW7       30.02F HX  91
WINONA         MOCLDY    87  77  71 S3        30.03F HX  98
$$

MSZ003>006-009-014>017-022>024-029>033-037>039-161900-
NORTHEAST MISSISSIPPI

CITY           SKY/WX    TMP DP  RH WIND       PRES   REMARKS
COLUMBUS AFB   PTSUNNY   84  81  89 CALM      30.04F HX  98
6HR MIN TEMP:  74; 6HR MAX TEMP:  85;

CORINTH        CLOUDY    86  75  70 SW5G13    30.03F HX  95
GOLDN TRIANGLE PTSUNNY   88  73  62 CALM      30.04S HX  96
STARKVILLE     FAIR      86  73  66 CALM      30.05F HX  93
TUPELO         CLOUDY    81  73  76 SW6       30.05F
6HR MIN TEMP:  75; 6HR MAX TEMP:  83;

$$

MSZ040-058-161900-
CENTRAL MISSISSIPPI

CITY           SKY/WX    TMP DP  RH WIND       PRES   REMARKS
JACKSON INTL   CLOUDY    82  73  74 W14G22    30.05S
6HR MIN TEMP:  76; 6HR MAX TEMP:  89; 6HR PCP:  0.04;

JACKSON HAWKNS LGT RAIN  78  74  87 NW6       30.06S FOG
6HR MIN TEMP:  75; 6HR MAX TEMP:  88; 6HR PCP: TRACE;

MADISON        CLOUDY    73  72  94 NW7G22    30.06R THUNDER
MERIDIAN KEY   MOSUNNY   89  76  65 VRB6      30.05F HX 100
6HR MIN TEMP:  76; 6HR MAX TEMP:  90;

MERIDIAN NAS   PTSUNNY   90  76  63 SW6       30.05F HX 101
6HR MIN TEMP:  76; 6HR MAX TEMP:  91;

RAYMOND        MOCLDY    79  75  89 VRB5      30.04F
VICKSBURG VKS  PTCLDY    91  77  62 SW9G16    30.01F HX 105
$$

MSZ059>079-161900-
SOUTH MISSISSIPPI

CITY           SKY/WX    TMP DP  RH WIND       PRES   REMARKS
COLUMBIA       FAIR      90 N/A N/A SW6       30.07F
HATTIESBURG    MOSUNNY   89  78  70 SE3       30.06F HX 103
6HR MIN TEMP:  75; 6HR MAX TEMP:  89; 6HR PCP:  0.01;

LAUREL         FAIR      89  74  60 SW6       30.06F HX  97
MCCOMB         MOSUNNY   88  76  67 SW5       30.05F HX  99
6HR MIN TEMP:  75; 6HR MAX TEMP:  88;

NATCHEZ        PTSUNNY   85  75  72 SW16G24   30.07R HX  93
6HR MIN TEMP:  77; 6HR MAX TEMP:  88;

PINE BELT      MOSUNNY   90  76  63 S6        30.06F HX 101
6HR MIN TEMP:  75; 6HR MAX TEMP:  90;

$$

MSZ080>082-161900-
COASTAL MISSISSIPPI

CITY           SKY/WX    TMP DP  RH WIND       PRES   REMARKS
BAY ST LOUIS   MOSUNNY   91  75  59 W6        30.07S HX 102
BILOXI         SUNNY     89  78  69 S8        30.06F HX 103
6HR MIN TEMP:  78; 6HR MAX TEMP:  90;

PASCAGOULA     CLOUDY    88  75  65 E6        30.06F HX  97
6HR MIN TEMP:  75; 6HR MAX TEMP:  93; 6HR PCP: TRACE;

GULFPORT       MOSUNNY   91  78  65 S9        30.05F HX 106
6HR MIN TEMP:  77; 6HR MAX TEMP:  91;

$$

LAZ007>009-015>016-023>026-161900-
NORTHEAST LOUISIANA

CITY           SKY/WX    TMP DP  RH WIND       PRES   REMARKS
BASTROP        MOCLDY    90  77  66 S7        30.01F HX 103
TALLULAH/VBURG PTSUNNY   90  78  68 VRB3      30.02F HX 104
6HR MIN TEMP:  76; 6HR MAX TEMP:  90;

VIDALIA        HVY RAIN N/A N/A N/A MISG      30.04R
$$




USA.gov is the U.S. government's official web portal to all federal, state and local government web resources and services.